[[{"header":{"parameterUnit":"m.s-1","parameterCategory":2,"la1":30.2991,"la2":30.254,"lo1":-89.0895,"lo2":-89.0444,"dy":0.0017,"dx":0.0017,"nx":28,"ny":28,"refTime":"2025-09-05T09:00:00:Z","depth":"0","parameterNumber":2,"parameterNumberName":"U-component_of_CURRENTS"},"data":[0,0,0,0,0,0,0,0,0,0,0,0,0,0,0,0,0,0,0,0,0,0,0,0,0,0,0,0,0,0,0,0,0,0,0,0,0,0,0,0,0,0,0,0,0,0,0,0,0,0,0,0,0,0,0,0,0,0,-0.3304,-0.3304,0,-0.3307,-0.3307,-0.3307,-0.3241,-0.324,-0.3238,-0.3237,-0.3154,-0.3153,-0.3152,0,0,0,0,0,0,0,0,0,0,0,0,0,-0.3216,-0.3217,-0.3304,-0.3304,-0.3305,-0.3307,-0.3307,-0.3307,-0.3241,-0.324,-0.3238,-0.3236,-0.3154,-0.3153,-0.3152,0,0,0,0,0,0,0,0,0,0,0,0,0,-0.3236,-0.3218,-0.3304,-0.3276,-0.3274,-0.3308,-0.3307,-0.3307,-0.3242,-0.324,-0.3238,-0.3236,-0.3155,-0.3153,-0.3152,-0.3184,0,0,-0.3148,-0.3147,0,0,0,0,0,0,0,0,-0.3235,-0.3239,-0.328,-0.3278,-0.3276,-0.3276,-0.3246,-0.3263,-0.3242,-0.3249,-0.3237,-0.3235,-0.3191,-0.3187,-0.3187,-0.318,-0.3177,-0.3147,-0.3147,-0.3146,-0.3146,0,0,0,0,0,0,0,-0.3234,-0.3238,-0.3301,-0.328,-0.3278,-0.3255,-0.3255,-0.3249,-0.3226,-0.3248,-0.3245,-0.3253,-0.3188,-0.3188,-0.3184,-0.3175,-0.3148,-0.3146,-0.3145,-0.3145,-0.3196,-0.3198,0,0,0,0,0,0,-0.3246,-0.3237,-0.3301,-0.3301,-0.3255,-0.3259,-0.3259,-0.3274,-0.3228,-0.3221,-0.3255,-0.325,-0.3192,-0.3186,-0.3181,-0.3206,-0.3146,-0.3145,-0.3144,-0.3193,-0.3196,-0.3198,0,0,0,0,0,0,-0.3245,-0.3252,-0.3301,-0.3272,-0.3277,-0.3263,-0.328,-0.3275,-0.3271,-0.3235,-0.3225,-0.3255,-0.319,-0.3183,-0.3189,-0.3202,-0.3144,-0.3143,-0.3191,-0.3194,-0.3197,-0.3263,0,0,0,0,0,0,-0.3242,-0.3252,-0.3263,-0.3274,-0.3279,-0.3333,-0.3283,-0.3277,-0.3281,-0.3275,-0.3232,-0.3223,-0.3188,-0.3192,-0.3188,-0.3199,-0.3142,-0.3188,-0.3192,-0.3196,-0.3258,-0.3268,-0.3277,0,0,0,0,0,-0.3239,-0.3271,-0.3263,-0.3271,-0.3297,-0.3335,-0.3337,-0.3315,-0.3284,-0.3299,-0.3271,-0.3224,-0.3214,-0.3193,-0.3187,-0.3199,-0.3186,-0.3191,-0.3196,-0.3254,-0.3266,-0.3276,0,0,0,0,0,0,-0.3231,-0.3268,-0.3259,-0.3297,-0.3319,-0.3326,-0.3337,-0.3325,-0.3316,-0.33,-0.3254,-0.3245,-0.3256,-0.3232,-0.3209,-0.323,-0.3192,-0.3196,-0.3238,-0.3249,-0.3258,-0.3245,-0.314,0,0,0,0,0,-0.324,-0.3271,-0.3299,-0.3326,-0.3342,-0.334,-0.3349,-0.3341,-0.3339,-0.3332,-0.3306,-0.3283,-0.3277,-0.3265,-0.3259,-0.3272,-0.3192,-0.3279,-0.3288,-0.3296,-0.3285,-0.3219,-0.3219,-0.3215,-0.3215,-0.3215,0,0,-0.3239,-0.3266,-0.3279,-0.3326,-0.3335,-0.3374,-0.3339,-0.3365,-0.3383,-0.3326,-0.3336,-0.3318,-0.3292,-0.3305,-0.3307,-0.3281,-0.3247,-0.3302,-0.3309,-0.3293,-0.3224,-0.3223,-0.3223,-0.3218,-0.3217,-0.3217,0,0,-0.3273,-0.3285,-0.3328,-0.3357,-0.3391,-0.3397,-0.341,-0.3428,-0.3418,-0.3445,-0.3401,-0.3392,-0.3393,-0.3365,-0.3353,-0.3415,-0.3305,-0.342,-0.3444,-0.3381,-0.3379,-0.3377,-0.3225,-0.3209,-0.3417,-0.3417,-0.3417,0,-0.3261,-0.3326,-0.3344,-0.3398,-0.3415,-0.3413,-0.3454,-0.3464,-0.3477,-0.3461,-0.3458,-0.3436,-0.3418,-0.3404,-0.343,-0.343,-0.3349,-0.3398,-0.3388,-0.3384,-0.3381,-0.3226,-0.3207,-0.3421,-0.3421,-0.342,-0.342,0,-0.3337,-0.3381,-0.341,-0.347,-0.3496,-0.3532,-0.3552,-0.3561,-0.3551,-0.3542,-0.3534,-0.3517,-0.3489,-0.3497,-0.3485,-0.3459,-0.339,-0.3409,-0.3348,-0.3384,-0.3219,-0.3199,-0.3426,-0.3425,-0.3424,-0.3423,0,0,-0.3296,-0.3435,-0.3438,-0.3468,-0.3531,-0.3549,-0.3587,-0.36,-0.3585,-0.3602,-0.3576,-0.3588,-0.3553,-0.3539,-0.3514,-0.3471,-0.3373,-0.3437,-0.3432,-0.3263,-0.3157,-0.3033,-0.2996,-0.3391,-0.3389,-0.3388,-0.3031,0,-0.3329,-0.345,-0.3502,-0.3565,-0.3609,-0.362,-0.3641,-0.3644,-0.3639,-0.3618,-0.3589,-0.3569,-0.3577,-0.3555,-0.352,-0.3418,-0.333,-0.3462,-0.3166,-0.3155,-0.3024,-0.2975,-0.2892,-0.2563,-0.301,-0.3006,-0.3004,0,-0.3356,-0.3435,-0.3531,-0.3589,-0.3603,-0.3635,-0.3624,-0.365,-0.3628,-0.3616,-0.3595,-0.3568,-0.3507,-0.3524,-0.3332,-0.3415,-0.3288,-0.3203,-0.3188,-0.3036,-0.2995,-0.2612,-0.2507,-0.2518,-0.297,-0.2973,-0.2975,0,-0.3294,-0.342,-0.3493,-0.3524,-0.361,-0.3616,-0.3638,-0.3633,-0.3607,-0.3605,-0.3562,-0.3519,-0.3434,-0.3345,-0.3176,-0.3249,-0.2926,-0.2998,-0.2743,-0.2728,-0.2579,-0.2556,-0.2433,-0.2839,-0.284,-0.2841,-0.2842,0,-0.3285,-0.3321,-0.347,-0.3504,-0.3519,-0.3587,-0.3565,-0.3584,-0.3567,-0.347,-0.3545,-0.3433,-0.339,-0.3213,-0.3118,-0.2819,-0.2857,-0.2701,-0.2633,-0.2596,-0.2579,-0.2521,-0.2575,-0.2828,-0.2831,-0.2833,-0.2836,0,-0.3181,-0.3304,-0.3367,-0.3479,-0.3495,-0.3497,-0.3506,-0.3449,-0.3492,-0.3367,-0.3355,-0.33,-0.3063,-0.2959,-0.2728,-0.2665,-0.2398,-0.2339,-0.2252,-0.2183,-0.2028,-0.2088,-0.1832,-0.1781,-0.2016,-0.2011,-0.2007,0,-0.3136,-0.3177,-0.331,-0.3305,-0.3348,-0.3364,-0.3312,-0.3381,-0.3293,-0.3227,-0.3102,-0.2936,-0.2714,-0.2368,-0.2235,-0.1989,-0.2072,-0.1804,-0.1968,-0.1961,-0.1979,-0.2047,-0.2032,-0.1756,-0.175,-0.1745,-0.1741,0,-0.3002,-0.3067,-0.3117,-0.3126,-0.3106,-0.306,-0.3007,-0.2956,-0.2943,-0.287,-0.2657,-0.2522,-0.2221,-0.1955,-0.1722,-0.161,-0.1806,-0.1694,-0.1728,-0.1782,-0.1805,-0.1743,-0.2002,-0.1697,-0.1702,-0.1705,-0.1707,-0.1709,-0.2841,-0.2852,-0.2904,-0.2876,-0.2831,-0.2683,-0.2562,-0.2517,-0.2384,-0.2199,-0.2184,-0.1911,-0.1796,-0.1471,-0.1364,-0.1268,-0.1373,-0.1295,-0.1355,-0.1414,-0.1427,-0.1548,-0.1175,-0.1177,-0.1178,-0.1179,-0.118,0,-0.2612,-0.2638,-0.2614,-0.2534,-0.2331,-0.2411,-0.2251,-0.2104,-0.1892,-0.1791,-0.1604,-0.1319,-0.1158,-0.1112,-0.1054,-0.1,-0.1042,-0.1005,-0.1133,-0.1128,-0.1235,-0.1294,-0.0884,-0.0884,-0.0884,-0.0884,-0.0884,-0.0884,-0.2482,-0.2421,-0.2431,-0.205,-0.1939,-0.163,-0.1507,-0.1404,-0.1308,-0.1066,-0.0869,-0.0752,-0.0809,-0.0984,-0.0982,-0.0937,-0.0982,-0.0907,-0.0962,-0.113,-0.1166,-0.1201,-0.1271,-0.0863,-0.0863,-0.0833,-0.0833,-0.0833]},{"header":{"parameterUnit":"m.s-1","parameterCategory":2,"la1":30.2991,"la2":30.254,"lo1":-89.0895,"lo2":-89.0444,"dy":0.0017,"dx":0.0017,"nx":28,"ny":28,"refTime":"2025-09-05T09:00:00:Z","depth":"0","parameterNumber":3,"parameterNumberName":"V-component_of_CURRENTS"},"data":[0,0,0,0,0,0,0,0,0,0,0,0,0,0,0,0,0,0,0,0,0,0,0,0,0,0,0,0,0,0,0,0,0,0,0,0,0,0,0,0,0,0,0,0,0,0,0,0,0,0,0,0,0,0,0,0,0,0,-0.0753,-0.0752,0,-0.0619,-0.0617,-0.0616,-0.0532,-0.0532,-0.0531,-0.0531,-0.0407,-0.0404,-0.0402,0,0,0,0,0,0,0,0,0,0,0,0,0,-0.0908,-0.0906,-0.0754,-0.0752,-0.075,-0.0619,-0.0617,-0.0616,-0.0532,-0.0532,-0.0531,-0.053,-0.0408,-0.0405,-0.0401,0,0,0,0,0,0,0,0,0,0,0,0,0,-0.0815,-0.0905,-0.0754,-0.0692,-0.0685,-0.062,-0.0617,-0.0615,-0.0532,-0.0532,-0.0531,-0.053,-0.0409,-0.0405,-0.0401,-0.0391,0,0,-0.0388,-0.0386,0,0,0,0,0,0,0,0,-0.082,-0.081,-0.0703,-0.0696,-0.0688,-0.0591,-0.0626,-0.054,-0.0533,-0.0591,-0.0531,-0.053,-0.047,-0.0461,-0.0438,-0.0385,-0.0379,-0.0388,-0.0385,-0.0383,-0.0382,0,0,0,0,0,0,0,-0.0827,-0.0815,-0.0701,-0.0701,-0.0692,-0.0661,-0.0647,-0.061,-0.0537,-0.0586,-0.058,-0.0564,-0.0466,-0.0442,-0.0434,-0.0378,-0.0388,-0.0384,-0.0381,-0.038,-0.0323,-0.0324,0,0,0,0,0,0,-0.0844,-0.0821,-0.0705,-0.0697,-0.0753,-0.0659,-0.0643,-0.0624,-0.0537,-0.0523,-0.0564,-0.056,-0.045,-0.0439,-0.043,-0.0432,-0.0383,-0.0379,-0.0377,-0.0322,-0.0323,-0.0324,0,0,0,0,0,0,-0.0848,-0.0835,-0.0711,-0.0756,-0.0737,-0.0657,-0.0635,-0.0621,-0.0596,-0.0521,-0.0506,-0.0554,-0.0449,-0.0436,-0.0407,-0.0425,-0.0378,-0.0374,-0.0321,-0.0322,-0.0324,-0.0423,0,0,0,0,0,0,-0.0853,-0.0837,-0.0835,-0.0757,-0.0735,-0.0683,-0.0636,-0.0619,-0.0587,-0.058,-0.0507,-0.0494,-0.0447,-0.0414,-0.0403,-0.0419,-0.037,-0.0319,-0.0321,-0.0323,-0.0419,-0.0428,-0.0436,0,0,0,0,0,-0.0859,-0.086,-0.0836,-0.0822,-0.0733,-0.0684,-0.0671,-0.0611,-0.0588,-0.0585,-0.0538,-0.0496,-0.0418,-0.0411,-0.0398,-0.0413,-0.0318,-0.0321,-0.0323,-0.0415,-0.0426,-0.0436,0,0,0,0,0,0,-0.0923,-0.0849,-0.0821,-0.0798,-0.075,-0.067,-0.0659,-0.062,-0.0579,-0.0575,-0.0506,-0.0491,-0.0474,-0.0432,-0.0426,-0.0403,-0.0363,-0.0363,-0.0437,-0.0447,-0.0455,-0.0475,-0.0367,0,0,0,0,0,-0.0938,-0.092,-0.0846,-0.083,-0.0809,-0.0738,-0.0712,-0.0673,-0.0622,-0.0602,-0.0552,-0.0505,-0.0473,-0.0452,-0.0415,-0.0401,-0.0317,-0.0403,-0.0412,-0.042,-0.0428,-0.0319,-0.0318,-0.0332,-0.0332,-0.0331,0,0,-0.0959,-0.0916,-0.0905,-0.0844,-0.0801,-0.0786,-0.0721,-0.0689,-0.0681,-0.0597,-0.058,-0.0534,-0.0477,-0.0462,-0.0451,-0.0429,-0.0368,-0.0422,-0.0429,-0.0433,-0.0321,-0.032,-0.0318,-0.0333,-0.0333,-0.0333,0,0,-0.1,-0.0954,-0.0958,-0.0925,-0.0869,-0.0825,-0.0822,-0.075,-0.0724,-0.0698,-0.0644,-0.0609,-0.0554,-0.0517,-0.0492,-0.0526,-0.0419,-0.0519,-0.0574,-0.0469,-0.0467,-0.0464,-0.0336,-0.0321,-0.0521,-0.0521,-0.0521,0,-0.1029,-0.1018,-0.0954,-0.0951,-0.0933,-0.0852,-0.0859,-0.0823,-0.0754,-0.0735,-0.0709,-0.0624,-0.058,-0.0556,-0.0574,-0.0545,-0.0458,-0.054,-0.0479,-0.0474,-0.0469,-0.0339,-0.0321,-0.0526,-0.0525,-0.0525,-0.0524,0,-0.1072,-0.1065,-0.1065,-0.1036,-0.1012,-0.1002,-0.0944,-0.0921,-0.0878,-0.0831,-0.0793,-0.0726,-0.0669,-0.0659,-0.0629,-0.0589,-0.0526,-0.0502,-0.0451,-0.0473,-0.0335,-0.0314,-0.0533,-0.0531,-0.053,-0.0529,0,0,-0.1118,-0.1102,-0.11,-0.1106,-0.1056,-0.1038,-0.1033,-0.0993,-0.0974,-0.0917,-0.0879,-0.0843,-0.0786,-0.0756,-0.0706,-0.0633,-0.0522,-0.0566,-0.0558,-0.0437,-0.0262,-0.0233,-0.0206,-0.048,-0.0478,-0.0476,-0.0171,0,-0.1169,-0.1199,-0.117,-0.1195,-0.1202,-0.114,-0.1134,-0.1088,-0.1032,-0.0973,-0.0899,-0.0847,-0.0829,-0.0793,-0.0723,-0.0562,-0.0476,-0.0606,-0.0261,-0.025,-0.022,-0.0185,-0.0164,0.0107,-0.015,-0.0146,-0.0144,0,-0.1213,-0.1226,-0.1272,-0.1267,-0.1263,-0.1267,-0.1226,-0.1211,-0.1116,-0.1067,-0.1001,-0.0915,-0.0814,-0.0786,-0.0533,-0.0611,-0.0459,-0.0336,-0.032,-0.0249,-0.0184,0.0084,0.0156,0.0262,-0.011,-0.0113,-0.0115,0,-0.1272,-0.129,-0.1335,-0.1334,-0.1318,-0.1325,-0.131,-0.1241,-0.12,-0.1115,-0.1039,-0.0929,-0.0806,-0.0645,-0.0412,-0.0452,-0.0097,-0.0105,0.0065,0.0072,0.0178,0.0188,0.0392,0.0073,0.0072,0.0071,0.007,0,-0.133,-0.1357,-0.1369,-0.1389,-0.1421,-0.1387,-0.1383,-0.1352,-0.1255,-0.1165,-0.1088,-0.0957,-0.076,-0.0535,-0.0376,-0.0073,-0.0052,0.0072,0.015,0.0144,0.0147,0.0314,0.0332,0.0083,0.008,0.0078,0.0076,0,-0.1384,-0.1395,-0.1441,-0.1451,-0.1453,-0.1475,-0.1424,-0.1379,-0.1309,-0.1175,-0.1135,-0.0913,-0.0625,-0.0417,-0.0086,0.0022,0.0355,0.0364,0.0347,0.0413,0.0609,0.0619,0.0913,0.0995,0.06,0.0602,0.0604,0,-0.1412,-0.1447,-0.1489,-0.1498,-0.1507,-0.1515,-0.1477,-0.142,-0.1341,-0.1119,-0.102,-0.0739,-0.0487,-0.0024,0.0191,0.0487,0.0542,0.0665,0.0556,0.0637,0.0709,0.0707,0.0753,0.0691,0.0694,0.0696,0.0698,0,-0.1457,-0.1478,-0.1512,-0.1531,-0.1523,-0.1494,-0.1438,-0.1392,-0.1253,-0.1114,-0.0828,-0.0617,-0.0183,0.0164,0.0483,0.0636,0.0723,0.0716,0.0826,0.081,0.0803,0.0913,0.0485,0.0717,0.0715,0.0714,0.0713,0.0712,-0.1471,-0.1508,-0.1532,-0.1538,-0.151,-0.1431,-0.1398,-0.1294,-0.1154,-0.0881,-0.0658,-0.0225,0.013,0.0583,0.0733,0.098,0.0933,0.1048,0.107,0.1073,0.1087,0.0689,0.0968,0.0967,0.0967,0.0967,0.0966,0,-0.1473,-0.1494,-0.1509,-0.1487,-0.1405,-0.1405,-0.1309,-0.1235,-0.1062,-0.0705,-0.0397,0.0293,0.0615,0.091,0.1185,0.1322,0.133,0.1389,0.1397,0.1438,0.1138,0.107,0.1352,0.1352,0.1352,0.1352,0.1351,0.1351,-0.147,-0.1496,-0.1495,-0.1364,-0.1318,-0.1206,-0.1154,-0.1061,-0.083,-0.0301,0.0243,0.0695,0.11,0.1375,0.1601,0.1619,0.174,0.1723,0.1802,0.157,0.1539,0.1509,0.1452,0.1809,0.1809,0.2093,0.2096,0.2098]}],[{"header":{"parameterUnit":"m.s-1","parameterCategory":2,"la1":30.2991,"la2":30.254,"lo1":-89.0895,"lo2":-89.0444,"dy":0.0017,"dx":0.0017,"nx":28,"ny":28,"refTime":"2025-09-05T09:00:00:Z","depth":"2","parameterNumber":2,"parameterNumberName":"U-component_of_CURRENTS"},"data":[0,0,0,0,0,0,0,0,0,0,0,0,0,0,0,0,0,0,0,0,0,0,0,0,0,0,0,0,0,0,0,0,0,0,0,0,0,0,0,0,0,0,0,0,0,0,0,0,0,0,0,0,0,0,0,0,0,0,-0.1622,-0.1623,0,-0.1665,-0.1665,-0.1665,-0.166,-0.1659,-0.1659,-0.1658,-0.1663,-0.1664,-0.1665,0,0,0,0,0,0,0,0,0,0,0,0,0,-0.1556,-0.1557,-0.1622,-0.1623,-0.1624,-0.1665,-0.1665,-0.1665,-0.166,-0.1659,-0.1659,-0.1658,-0.1663,-0.1664,-0.1665,0,0,0,0,0,0,0,0,0,0,0,0,0,-0.1589,-0.1558,-0.1622,-0.1627,-0.1628,-0.1665,-0.1665,-0.1666,-0.166,-0.1659,-0.1659,-0.1658,-0.1663,-0.1664,-0.1665,-0.1688,0,0,-0.1668,-0.1668,0,0,0,0,0,0,0,0,-0.1587,-0.1591,-0.1626,-0.1627,-0.1628,-0.1657,-0.1644,-0.1672,-0.166,-0.1646,-0.1658,-0.1657,-0.166,-0.1661,-0.1669,-0.1688,-0.1688,-0.1668,-0.1669,-0.1669,-0.1669,0,0,0,0,0,0,0,-0.1585,-0.1589,-0.1638,-0.1626,-0.1628,-0.1634,-0.1637,-0.1649,-0.1655,-0.1648,-0.1648,-0.1655,-0.166,-0.1668,-0.1669,-0.1688,-0.1668,-0.1669,-0.1669,-0.167,-0.1747,-0.1749,0,0,0,0,0,0,-0.1583,-0.1587,-0.1636,-0.1639,-0.1607,-0.1636,-0.1639,-0.1648,-0.1656,-0.1657,-0.1656,-0.1655,-0.1667,-0.1668,-0.1669,-0.172,-0.1669,-0.167,-0.167,-0.1746,-0.1747,-0.1749,0,0,0,0,0,0,-0.1581,-0.1587,-0.1635,-0.1615,-0.1622,-0.1638,-0.1647,-0.1649,-0.1661,-0.1663,-0.1663,-0.1667,-0.1666,-0.1668,-0.1687,-0.1719,-0.167,-0.1671,-0.1744,-0.1746,-0.1748,-0.1806,0,0,0,0,0,0,-0.1579,-0.1586,-0.1586,-0.1615,-0.1623,-0.1662,-0.1648,-0.165,-0.1668,-0.1667,-0.1672,-0.1672,-0.1666,-0.1685,-0.1688,-0.1719,-0.1672,-0.1742,-0.1745,-0.1748,-0.1802,-0.181,-0.1817,0,0,0,0,0,-0.1577,-0.1584,-0.1586,-0.1591,-0.1624,-0.1663,-0.1668,-0.1675,-0.1669,-0.1682,-0.1684,-0.1672,-0.1704,-0.1687,-0.169,-0.1722,-0.1741,-0.1744,-0.1747,-0.1799,-0.1809,-0.1816,0,0,0,0,0,0,-0.1552,-0.1585,-0.1587,-0.1603,-0.1633,-0.1663,-0.1674,-0.1682,-0.1696,-0.1691,-0.1688,-0.1688,-0.172,-0.1713,-0.1694,-0.1753,-0.1722,-0.1726,-0.1761,-0.177,-0.1777,-0.1768,-0.1673,0,0,0,0,0,-0.1548,-0.1567,-0.1598,-0.1614,-0.1627,-0.1652,-0.1667,-0.1677,-0.1696,-0.1701,-0.1708,-0.1717,-0.1737,-0.1745,-0.1757,-0.1787,-0.1757,-0.1811,-0.1818,-0.1824,-0.182,-0.1826,-0.1833,-0.176,-0.176,-0.176,0,0,-0.1541,-0.1566,-0.1572,-0.161,-0.1632,-0.1666,-0.1659,-0.1689,-0.1721,-0.17,-0.1738,-0.1743,-0.1751,-0.1786,-0.18,-0.1783,-0.1823,-0.1829,-0.1834,-0.1825,-0.1831,-0.1838,-0.1844,-0.1762,-0.1762,-0.1761,0,0,-0.1549,-0.1562,-0.158,-0.1614,-0.1654,-0.1676,-0.1688,-0.1724,-0.174,-0.178,-0.1775,-0.1791,-0.1826,-0.1833,-0.1843,-0.1896,-0.1861,-0.1912,-0.194,-0.1948,-0.1954,-0.1958,-0.1895,-0.1893,-0.1914,-0.1915,-0.1915,0,-0.1537,-0.157,-0.1592,-0.1631,-0.1662,-0.1684,-0.172,-0.1748,-0.1788,-0.1809,-0.1799,-0.1849,-0.1848,-0.189,-0.1908,-0.1911,-0.189,-0.1907,-0.1956,-0.1961,-0.1964,-0.1898,-0.1896,-0.1918,-0.1917,-0.1917,-0.1917,0,-0.1567,-0.1596,-0.1616,-0.1672,-0.1709,-0.1745,-0.1792,-0.1822,-0.1843,-0.1873,-0.1918,-0.1916,-0.1941,-0.1954,-0.1947,-0.1986,-0.195,-0.1964,-0.1931,-0.1975,-0.1902,-0.1899,-0.1922,-0.1921,-0.192,-0.1919,0,0,-0.153,-0.1616,-0.1619,-0.166,-0.1734,-0.1769,-0.1828,-0.1886,-0.1921,-0.1957,-0.1986,-0.2028,-0.2022,-0.203,-0.2024,-0.2028,-0.2021,-0.2012,-0.2011,-0.194,-0.1992,-0.192,-0.1908,-0.2057,-0.2058,-0.2059,-0.1916,0,-0.1544,-0.161,-0.1654,-0.1728,-0.1773,-0.1825,-0.188,-0.1939,-0.1978,-0.201,-0.2021,-0.2057,-0.2056,-0.2062,-0.2069,-0.2033,-0.2022,-0.2055,-0.1966,-0.1961,-0.1888,-0.1907,-0.1773,-0.1634,-0.1913,-0.1912,-0.1911,0,-0.1562,-0.1606,-0.1667,-0.1769,-0.179,-0.1837,-0.1921,-0.1972,-0.203,-0.2059,-0.2091,-0.2104,-0.2107,-0.2099,-0.2062,-0.2088,-0.2045,-0.2013,-0.2008,-0.1919,-0.1886,-0.1643,-0.1617,-0.1905,-0.1906,-0.1906,-0.1906,0,-0.153,-0.1624,-0.1669,-0.1706,-0.1811,-0.1847,-0.1899,-0.1982,-0.201,-0.2081,-0.2085,-0.2126,-0.2088,-0.2094,-0.2034,-0.2058,-0.1961,-0.1983,-0.187,-0.1861,-0.1716,-0.1694,-0.1961,-0.1962,-0.1962,-0.1962,-0.1963,0,-0.1538,-0.1578,-0.1658,-0.1682,-0.174,-0.1831,-0.1885,-0.1947,-0.1997,-0.2008,-0.2091,-0.2072,-0.2091,-0.2044,-0.2024,-0.1912,-0.1954,-0.186,-0.1833,-0.1728,-0.1711,-0.1934,-0.1933,-0.1957,-0.1958,-0.1959,-0.196,0,-0.1491,-0.1553,-0.1599,-0.1687,-0.1725,-0.1756,-0.1845,-0.1869,-0.1946,-0.1941,-0.196,-0.1993,-0.1946,-0.1937,-0.1887,-0.185,-0.1797,-0.1751,-0.1591,-0.1549,-0.1683,-0.1687,-0.1605,-0.1601,-0.1598,-0.1596,-0.1594,0,-0.1466,-0.1492,-0.1556,-0.1573,-0.1608,-0.1675,-0.1708,-0.1818,-0.1834,-0.1879,-0.1846,-0.1829,-0.1773,-0.1668,-0.1635,-0.1566,-0.1666,-0.1414,-0.1457,-0.1671,-0.1653,-0.1661,-0.1669,-0.1258,-0.1253,-0.1249,-0.1246,0,-0.1406,-0.1421,-0.1431,-0.1465,-0.1501,-0.1542,-0.1599,-0.1605,-0.1699,-0.1698,-0.1664,-0.163,-0.1533,-0.1406,-0.1343,-0.1307,-0.143,-0.1334,-0.1599,-0.139,-0.134,-0.1324,-0.1343,-0.1213,-0.1216,-0.1218,-0.122,-0.1222,-0.1319,-0.1297,-0.1313,-0.1334,-0.1373,-0.139,-0.1388,-0.143,-0.1431,-0.1412,-0.145,-0.1355,-0.1323,-0.1154,-0.1089,-0.1061,-0.1168,-0.1141,-0.1154,-0.1171,-0.1179,-0.1129,-0.0958,-0.0959,-0.0961,-0.0962,-0.0963,0,-0.1184,-0.1191,-0.1201,-0.1216,-0.1204,-0.1278,-0.1293,-0.1256,-0.1206,-0.1207,-0.117,-0.1018,-0.0922,-0.0913,-0.08,-0.0781,-0.0797,-0.0765,-0.079,-0.0822,-0.0851,-0.0846,-0.0534,-0.0533,-0.0532,-0.0531,0,0,-0.1123,-0.1074,-0.1078,-0.1046,-0.1064,-0.1026,-0.1007,-0.0953,-0.0931,-0.0845,-0.0809,-0.088,-0.0869,-0.0708,-0.0664,-0.0576,-0.0698,-0.0547,-0.0886,-0.0945,-0.0973,-0.1054,-0.108,0,0,0,0,0]},{"header":{"parameterUnit":"m.s-1","parameterCategory":2,"la1":30.2991,"la2":30.254,"lo1":-89.0895,"lo2":-89.0444,"dy":0.0017,"dx":0.0017,"nx":28,"ny":28,"refTime":"2025-09-05T09:00:00:Z","depth":"2","parameterNumber":3,"parameterNumberName":"V-component_of_CURRENTS"},"data":[0,0,0,0,0,0,0,0,0,0,0,0,0,0,0,0,0,0,0,0,0,0,0,0,0,0,0,0,0,0,0,0,0,0,0,0,0,0,0,0,0,0,0,0,0,0,0,0,0,0,0,0,0,0,0,0,0,0,-0.0227,-0.0226,0,-0.0157,-0.0156,-0.0155,-0.0109,-0.0109,-0.0109,-0.0108,-0.002,-0.0018,-0.0016,0,0,0,0,0,0,0,0,0,0,0,0,0,-0.0285,-0.0284,-0.0227,-0.0226,-0.0225,-0.0157,-0.0156,-0.0155,-0.0109,-0.0109,-0.0108,-0.0108,-0.002,-0.0018,-0.0015,0,0,0,0,0,0,0,0,0,0,0,0,0,-0.0241,-0.0284,-0.0227,-0.0194,-0.0191,-0.0157,-0.0156,-0.0155,-0.0109,-0.0109,-0.0108,-0.0108,-0.0021,-0.0018,-0.0015,-0.0003,0,0,-0.0005,-0.0004,0,0,0,0,0,0,0,0,-0.0244,-0.0239,-0.02,-0.0197,-0.0193,-0.0142,-0.0144,-0.0103,-0.0109,-0.014,-0.0108,-0.0108,-0.0059,-0.0053,-0.004,0.0001,0.0005,-0.0005,-0.0003,-0.0002,-0.0001,0,0,0,0,0,0,0,-0.0247,-0.0242,-0.0199,-0.0199,-0.0195,-0.0171,-0.0165,-0.0136,-0.0102,-0.0137,-0.0134,-0.0127,-0.0057,-0.0043,-0.0038,0.0006,-0.0005,-0.0002,-0.0,0.0001,0.0077,0.0077,0,0,0,0,0,0,-0.0259,-0.0245,-0.0201,-0.0197,-0.0218,-0.017,-0.0163,-0.0158,-0.0102,-0.0094,-0.0127,-0.0125,-0.0049,-0.0042,-0.0034,-0.001,-0.0002,0.0001,0.0003,0.0077,0.0077,0.0077,0,0,0,0,0,0,-0.0261,-0.0256,-0.0204,-0.0219,-0.0211,-0.017,-0.0164,-0.0157,-0.0143,-0.0095,-0.0086,-0.0121,-0.0048,-0.0039,-0.0008,-0.0007,0.0003,0.0006,0.0076,0.0077,0.0077,0.0034,0,0,0,0,0,0,-0.0263,-0.0257,-0.0259,-0.022,-0.0211,-0.0191,-0.0164,-0.0156,-0.0139,-0.0136,-0.0087,-0.0078,-0.0047,-0.0013,-0.0005,-0.0002,0.0008,0.0076,0.0077,0.0077,0.0035,0.0033,0.003,0,0,0,0,0,-0.0265,-0.0273,-0.026,-0.0254,-0.0215,-0.0191,-0.0184,-0.0153,-0.014,-0.0138,-0.0102,-0.008,-0.0006,-0.0011,-0.0001,0.0003,0.0076,0.0076,0.0077,0.0036,0.0033,0.003,0,0,0,0,0,0,-0.0297,-0.0268,-0.0253,-0.0251,-0.0225,-0.0184,-0.0181,-0.0158,-0.0128,-0.0124,-0.0078,-0.0067,-0.0041,-0.0014,-0.002,0.0025,0.0039,0.0041,0.0005,0.0002,-0.0,-0.0009,0.0011,0,0,0,0,0,-0.0306,-0.0306,-0.027,-0.0269,-0.026,-0.0221,-0.0208,-0.0187,-0.0154,-0.014,-0.0104,-0.0066,-0.0033,-0.0012,0.0018,0.0043,0.0074,0.0053,0.005,0.0048,0.0048,0.0101,0.0103,0.0078,0.0078,0.0078,0,0,-0.0317,-0.0302,-0.0301,-0.0276,-0.0254,-0.0246,-0.0212,-0.0198,-0.0185,-0.0136,-0.0111,-0.0077,-0.0029,-0.0001,0.0013,0.0023,0.0069,0.0048,0.0046,0.0047,0.0101,0.0104,0.0106,0.0078,0.0078,0.0078,0,0,-0.0346,-0.0327,-0.034,-0.0322,-0.0297,-0.0269,-0.0268,-0.0229,-0.0207,-0.018,-0.014,-0.0102,-0.0056,-0.0015,0.001,0.0013,0.005,0.002,0.0007,0.0058,0.006,0.0063,0.0093,0.0099,0.0023,0.0023,0.0023,0,-0.036,-0.037,-0.0339,-0.0345,-0.0333,-0.0284,-0.029,-0.0259,-0.0213,-0.0191,-0.0181,-0.0096,-0.006,-0.0009,-0.0009,0.0008,0.0035,0.0012,0.0055,0.0058,0.0061,0.0092,0.0099,0.0021,0.0021,0.0022,0.0022,0,-0.0399,-0.0403,-0.0409,-0.0398,-0.038,-0.0378,-0.0331,-0.0309,-0.0275,-0.0236,-0.0185,-0.0129,-0.0075,-0.0058,-0.0033,0.0011,0.0021,0.004,0.006,0.0061,0.0093,0.0101,0.0018,0.0019,0.002,0.002,0,0,-0.0431,-0.0438,-0.0438,-0.0445,-0.0409,-0.04,-0.0374,-0.0333,-0.031,-0.0256,-0.0219,-0.0155,-0.0115,-0.0084,-0.004,0.0006,0.0048,0.0028,0.0032,0.0053,0.0147,0.0164,0.0175,0.0075,0.0077,0.0078,0.0154,0,-0.0469,-0.0508,-0.0488,-0.0503,-0.0515,-0.046,-0.044,-0.0391,-0.0336,-0.0286,-0.0208,-0.0159,-0.0126,-0.0098,-0.0047,0.0027,0.0069,0.0024,0.0146,0.0149,0.0162,0.0185,0.0172,0.024,0.0162,0.0164,0.0165,0,-0.0513,-0.0531,-0.0568,-0.0562,-0.0559,-0.0555,-0.0505,-0.0479,-0.0388,-0.0345,-0.0269,-0.0199,-0.0118,-0.0094,0.0035,0.0004,0.0067,0.0123,0.0127,0.0166,0.0183,0.023,0.0258,0.0179,0.0177,0.0176,0.0175,0,-0.0563,-0.0581,-0.0617,-0.0615,-0.0599,-0.0596,-0.0576,-0.05,-0.0471,-0.0374,-0.0335,-0.0224,-0.0166,-0.0066,0.0054,0.0047,0.0191,0.02,0.0275,0.0276,0.0301,0.0302,0.0288,0.0288,0.0287,0.0287,0.0287,0,-0.0616,-0.0639,-0.0649,-0.0666,-0.0691,-0.0653,-0.0649,-0.0605,-0.0533,-0.0484,-0.0372,-0.0302,-0.0155,-0.0045,0.0051,0.019,0.0194,0.0279,0.0305,0.0284,0.0283,0.0259,0.0255,0.029,0.0289,0.0289,0.0288,0,-0.067,-0.0682,-0.0717,-0.0719,-0.0722,-0.0738,-0.0714,-0.0697,-0.0623,-0.0554,-0.0522,-0.036,-0.0205,-0.0062,0.011,0.0188,0.0316,0.036,0.0315,0.0335,0.0363,0.0356,0.0454,0.0455,0.0456,0.0457,0.0458,0,-0.0702,-0.0732,-0.076,-0.0783,-0.0791,-0.0805,-0.0808,-0.0754,-0.0725,-0.0575,-0.0543,-0.0371,-0.0226,0.0022,0.019,0.0364,0.0359,0.0439,0.043,0.0368,0.0384,0.0375,0.0366,0.044,0.0441,0.0441,0.0442,0,-0.0748,-0.076,-0.0785,-0.0839,-0.0864,-0.0884,-0.0881,-0.0876,-0.0782,-0.0692,-0.0535,-0.0401,-0.0146,0.0071,0.0281,0.0378,0.041,0.0455,0.0426,0.0396,0.0361,0.0374,0.0365,0.0447,0.0446,0.0446,0.0445,0.0445,-0.0765,-0.0795,-0.083,-0.0878,-0.0914,-0.094,-0.0949,-0.0908,-0.0842,-0.0677,-0.0549,-0.0322,-0.0122,0.0201,0.0348,0.0474,0.0476,0.0509,0.0505,0.0501,0.0482,0.0451,0.0548,0.0549,0.0549,0.0549,0.0549,0,-0.0768,-0.0811,-0.0862,-0.0917,-0.0958,-0.0969,-0.0973,-0.0942,-0.085,-0.0665,-0.0484,-0.023,0.0011,0.0202,0.0414,0.0539,0.052,0.055,0.0505,0.0501,0.0497,0.0474,0.0541,0.0541,0.0541,0.0541,0,0,-0.0773,-0.0822,-0.0852,-0.093,-0.097,-0.1,-0.1,-0.0925,-0.0806,-0.0598,-0.0415,-0.0197,0.0035,0.0181,0.0342,0.0448,0.0435,0.0451,0.0448,0.0372,0.0366,0.0469,0.043,0,0,0,0,0]}],[{"header":{"parameterUnit":"m.s-1","parameterCategory":2,"la1":30.2991,"la2":30.254,"lo1":-89.0895,"lo2":-89.0444,"dy":0.0017,"dx":0.0017,"nx":28,"ny":28,"refTime":"2025-09-05T09:00:00:Z","depth":"4","parameterNumber":2,"parameterNumberName":"U-component_of_CURRENTS"},"data":[0,0,0,0,0,0,0,0,0,0,0,0,0,0,0,0,0,0,0,0,0,0,0,0,0,0,0,0,0,0,0,0,0,0,0,0,0,0,0,0,0,0,0,0,0,0,0,0,0,0,0,0,0,0,0,0,0,0,-0.1062,-0.1062,0,-0.1122,-0.1123,-0.1123,-0.1149,-0.1149,-0.1149,-0.1149,-0.1198,-0.12,-0.1201,0,0,0,0,0,0,0,0,0,0,0,0,0,-0.0972,-0.0973,-0.1062,-0.1062,-0.1063,-0.1122,-0.1123,-0.1124,-0.1149,-0.1149,-0.1149,-0.1149,-0.1198,-0.1199,-0.1201,0,0,0,0,0,0,0,0,0,0,0,0,0,-0.1018,-0.0974,-0.1061,-0.1084,-0.1087,-0.1122,-0.1123,-0.1124,-0.1149,-0.1149,-0.1149,-0.1149,-0.1197,-0.1199,-0.1201,-0.1214,0,0,-0.1207,-0.1208,0,0,0,0,0,0,0,0,-0.1016,-0.1021,-0.108,-0.1082,-0.1085,-0.1129,-0.111,-0.1154,-0.1149,-0.1124,-0.1149,-0.1149,-0.1175,-0.1179,-0.1189,-0.1216,-0.1218,-0.1208,-0.1209,-0.121,-0.121,0,0,0,0,0,0,0,-0.1012,-0.1019,-0.1084,-0.1081,-0.1084,-0.1093,-0.1099,-0.1118,-0.1147,-0.1126,-0.1128,-0.1137,-0.1176,-0.1187,-0.119,-0.1219,-0.1208,-0.1209,-0.1211,-0.1211,-0.1302,-0.1304,0,0,0,0,0,0,-0.1008,-0.1016,-0.1082,-0.1086,-0.1051,-0.1094,-0.1101,-0.1114,-0.1148,-0.1153,-0.1137,-0.1138,-0.1183,-0.1188,-0.1192,-0.1254,-0.121,-0.1212,-0.1213,-0.1301,-0.1303,-0.1304,0,0,0,0,0,0,-0.1005,-0.1013,-0.108,-0.1053,-0.1062,-0.1096,-0.111,-0.1115,-0.1143,-0.1156,-0.1161,-0.1161,-0.1183,-0.1189,-0.1229,-0.1255,-0.1212,-0.1214,-0.13,-0.1302,-0.1303,-0.135,0,0,0,0,0,0,-0.1003,-0.1012,-0.1026,-0.1053,-0.1064,-0.1118,-0.111,-0.1116,-0.1148,-0.115,-0.1179,-0.1182,-0.1184,-0.1226,-0.1231,-0.1257,-0.1216,-0.1298,-0.1301,-0.1303,-0.1347,-0.1353,-0.1359,0,0,0,0,0,-0.0999,-0.102,-0.1027,-0.1035,-0.108,-0.1119,-0.1126,-0.1148,-0.1149,-0.1171,-0.1189,-0.1182,-0.1244,-0.1229,-0.1234,-0.1261,-0.1297,-0.13,-0.1303,-0.1344,-0.1352,-0.1359,0,0,0,0,0,0,-0.0989,-0.1026,-0.1033,-0.1064,-0.1096,-0.1124,-0.1148,-0.1159,-0.1191,-0.1197,-0.1202,-0.1208,-0.125,-0.1251,-0.1234,-0.1294,-0.1268,-0.1272,-0.1298,-0.1305,-0.1311,-0.1303,-0.1217,0,0,0,0,0,-0.0992,-0.1018,-0.1052,-0.1077,-0.1097,-0.1124,-0.1145,-0.1162,-0.119,-0.1204,-0.1223,-0.1243,-0.1263,-0.1281,-0.1298,-0.1336,-0.1318,-0.1355,-0.1361,-0.1366,-0.1363,-0.1355,-0.136,-0.1313,-0.1313,-0.1313,0,0,-0.0994,-0.1018,-0.1032,-0.1077,-0.1103,-0.1141,-0.1137,-0.1179,-0.121,-0.1205,-0.1256,-0.1266,-0.1277,-0.1317,-0.1336,-0.1324,-0.1373,-0.1369,-0.1373,-0.1368,-0.1359,-0.1363,-0.1367,-0.1315,-0.1315,-0.1314,0,0,-0.101,-0.1034,-0.1064,-0.1096,-0.1144,-0.1163,-0.118,-0.1223,-0.1244,-0.1292,-0.1292,-0.1318,-0.1358,-0.1367,-0.1376,-0.1425,-0.1402,-0.1435,-0.1462,-0.1455,-0.1459,-0.1461,-0.1453,-0.1454,-0.144,-0.144,-0.144,0,-0.1012,-0.1053,-0.1078,-0.1119,-0.115,-0.1176,-0.1218,-0.1246,-0.1296,-0.1312,-0.1316,-0.1365,-0.1379,-0.1411,-0.1432,-0.1438,-0.1427,-0.1435,-0.1462,-0.1464,-0.1466,-0.1456,-0.1457,-0.1442,-0.1442,-0.1442,-0.1442,0,-0.105,-0.1091,-0.1114,-0.1172,-0.1207,-0.1249,-0.129,-0.1327,-0.1352,-0.1371,-0.1414,-0.143,-0.1453,-0.1467,-0.1468,-0.1494,-0.148,-0.1467,-0.144,-0.1473,-0.1461,-0.1461,-0.1446,-0.1445,-0.1444,-0.1444,0,0,-0.1031,-0.1123,-0.1132,-0.1168,-0.124,-0.127,-0.1328,-0.1377,-0.1405,-0.1445,-0.1471,-0.1513,-0.151,-0.1519,-0.1522,-0.1523,-0.1536,-0.1507,-0.1505,-0.1492,-0.152,-0.1405,-0.1394,-0.1526,-0.1526,-0.1526,-0.1508,0,-0.1055,-0.1131,-0.1173,-0.1245,-0.1288,-0.1335,-0.1382,-0.1428,-0.1461,-0.1491,-0.1503,-0.1531,-0.1533,-0.1545,-0.1548,-0.1535,-0.1538,-0.1542,-0.1495,-0.1493,-0.1382,-0.139,-0.1527,-0.1508,-0.1508,-0.1508,-0.1508,0,-0.1074,-0.1125,-0.1199,-0.1282,-0.1305,-0.1351,-0.1418,-0.1464,-0.151,-0.1533,-0.1557,-0.1561,-0.1578,-0.1567,-0.1562,-0.1564,-0.155,-0.1536,-0.1534,-0.1407,-0.1378,-0.1467,-0.1508,-0.1508,-0.1508,-0.1508,-0.1508,0,-0.1034,-0.1139,-0.1195,-0.1228,-0.1326,-0.1365,-0.1413,-0.1474,-0.1503,-0.1554,-0.1567,-0.1587,-0.1589,-0.1579,-0.1558,-0.1564,-0.153,-0.1532,-0.1416,-0.1408,-0.1497,-0.1495,-0.1523,-0.1523,-0.1523,-0.1523,-0.1523,0,-0.1026,-0.107,-0.1185,-0.1214,-0.1274,-0.1353,-0.1405,-0.1456,-0.1512,-0.153,-0.1579,-0.1578,-0.1591,-0.1572,-0.1557,-0.1473,-0.153,-0.1412,-0.139,-0.152,-0.152,-0.1498,-0.1495,-0.1522,-0.1522,-0.1523,-0.1523,0,-0.0957,-0.1037,-0.1106,-0.1222,-0.1256,-0.1295,-0.1387,-0.1415,-0.1489,-0.1511,-0.1525,-0.1564,-0.1534,-0.1528,-0.15,-0.1452,-0.14,-0.1361,-0.1497,-0.1484,-0.129,-0.129,-0.123,-0.1226,-0.1222,-0.1219,-0.1216,0,-0.0923,-0.0957,-0.1086,-0.1119,-0.117,-0.1243,-0.1281,-0.138,-0.1406,-0.1485,-0.1475,-0.1479,-0.1486,-0.1349,-0.1367,-0.131,-0.1296,-0.1275,-0.1285,-0.1272,-0.1257,-0.1263,-0.1268,-0.121,-0.1209,-0.1208,-0.1208,0,-0.0852,-0.0909,-0.0963,-0.1035,-0.109,-0.1144,-0.1211,-0.1222,-0.1325,-0.1399,-0.1375,-0.1349,-0.1303,-0.1264,-0.1218,-0.1188,-0.129,-0.1236,-0.1244,-0.1254,-0.1248,-0.1238,-0.1247,-0.1195,-0.1197,-0.1198,-0.1199,0,-0.079,-0.0807,-0.0886,-0.0936,-0.1,-0.103,-0.1083,-0.1115,-0.1154,-0.1254,-0.1236,-0.1248,-0.1284,-0.12,-0.1165,-0.111,-0.1098,-0.1075,-0.1092,-0.1106,-0.107,-0.1044,-0.0899,0,0,0,0,0,-0.0724,-0.0733,-0.0778,-0.0839,-0.0899,-0.0938,-0.1026,-0.1086,-0.1186,-0.113,-0.1183,-0.1138,-0.108,-0.1089,-0.1001,-0.1104,-0.1102,-0.0999,-0.1086,-0.1124,-0.1139,-0.1106,0,0,0,0,0,0,-0.0679,-0.0711,-0.0743,-0.0745,-0.0765,-0.0823,-0.0878,-0.0953,-0.0934,-0.1031,-0.0994,-0.1062,-0.1009,-0.1092,-0.0971,-0.0972,-0.1003,-0.1013,-0.101,-0.1116,-0.1129,-0.1141,-0.1113,0,0,0,0,0]},{"header":{"parameterUnit":"m.s-1","parameterCategory":2,"la1":30.2991,"la2":30.254,"lo1":-89.0895,"lo2":-89.0444,"dy":0.0017,"dx":0.0017,"nx":28,"ny":28,"refTime":"2025-09-05T09:00:00:Z","depth":"4","parameterNumber":3,"parameterNumberName":"V-component_of_CURRENTS"},"data":[0,0,0,0,0,0,0,0,0,0,0,0,0,0,0,0,0,0,0,0,0,0,0,0,0,0,0,0,0,0,0,0,0,0,0,0,0,0,0,0,0,0,0,0,0,0,0,0,0,0,0,0,0,0,0,0,0,0,-0.0162,-0.0162,0,-0.0113,-0.0112,-0.0111,-0.0086,-0.0086,-0.0086,-0.0086,-0.0025,-0.0023,-0.0022,0,0,0,0,0,0,0,0,0,0,0,0,0,-0.0197,-0.0197,-0.0162,-0.0162,-0.0161,-0.0113,-0.0112,-0.0111,-0.0086,-0.0086,-0.0086,-0.0086,-0.0025,-0.0024,-0.0022,0,0,0,0,0,0,0,0,0,0,0,0,0,-0.0168,-0.0197,-0.0162,-0.0143,-0.0141,-0.0113,-0.0112,-0.0111,-0.0086,-0.0086,-0.0086,-0.0086,-0.0026,-0.0024,-0.0021,-0.0005,0,0,-0.0014,-0.0013,0,0,0,0,0,0,0,0,-0.017,-0.0166,-0.0146,-0.0144,-0.0142,-0.0106,-0.0102,-0.0075,-0.0086,-0.0106,-0.0086,-0.0086,-0.0051,-0.0047,-0.0037,-0.0002,0.0,-0.0014,-0.0012,-0.0011,-0.001,0,0,0,0,0,0,0,-0.0172,-0.0168,-0.0142,-0.0146,-0.0143,-0.0124,-0.012,-0.0096,-0.0079,-0.0105,-0.0103,-0.0098,-0.005,-0.0039,-0.0035,0.0001,-0.0014,-0.0011,-0.001,-0.0009,0.0059,0.0059,0,0,0,0,0,0,-0.0181,-0.017,-0.0144,-0.0141,-0.0157,-0.0123,-0.0119,-0.0117,-0.0079,-0.0073,-0.0098,-0.0097,-0.0043,-0.0038,-0.0033,-0.0015,-0.0011,-0.0009,-0.0007,0.0059,0.0059,0.0059,0,0,0,0,0,0,-0.0182,-0.0179,-0.0146,-0.0154,-0.0149,-0.0123,-0.0121,-0.0116,-0.0107,-0.0074,-0.0068,-0.0095,-0.0043,-0.0036,-0.0012,-0.0012,-0.0008,-0.0005,0.0058,0.0059,0.0059,0.0023,0,0,0,0,0,0,-0.0183,-0.018,-0.0184,-0.0155,-0.0149,-0.0136,-0.0121,-0.0115,-0.0105,-0.0103,-0.0069,-0.0064,-0.0043,-0.0016,-0.0009,-0.0009,-0.0003,0.0058,0.0058,0.0059,0.0024,0.0022,0.002,0,0,0,0,0,-0.0184,-0.0191,-0.0184,-0.0181,-0.0155,-0.0136,-0.0131,-0.0112,-0.0105,-0.0104,-0.0077,-0.0065,-0.0007,-0.0013,-0.0006,-0.0005,0.0057,0.0058,0.0059,0.0024,0.0022,0.0021,0,0,0,0,0,0,-0.0208,-0.0189,-0.018,-0.0181,-0.0163,-0.0133,-0.0131,-0.0115,-0.0094,-0.0093,-0.006,-0.0052,-0.0032,-0.0011,-0.0018,0.0017,0.0027,0.0029,-0.0002,-0.0003,-0.0005,-0.0017,-0.0001,0,0,0,0,0,-0.0216,-0.0216,-0.0192,-0.0192,-0.0186,-0.0159,-0.015,-0.0136,-0.0112,-0.0103,-0.0077,-0.0048,-0.0023,-0.0008,0.0015,0.0036,0.0058,0.0043,0.0041,0.004,0.0036,0.0072,0.0073,0.0062,0.0062,0.0062,0,0,-0.0225,-0.0214,-0.0214,-0.0198,-0.0183,-0.0178,-0.0154,-0.0144,-0.0137,-0.0099,-0.0083,-0.0055,-0.0019,0.0003,0.0014,0.002,0.0054,0.0041,0.0039,0.0036,0.0073,0.0074,0.0075,0.0062,0.0062,0.0062,0,0,-0.0247,-0.0235,-0.0246,-0.0233,-0.0216,-0.0196,-0.0196,-0.0167,-0.0153,-0.0132,-0.0102,-0.0072,-0.0036,-0.0006,0.0013,0.0019,0.0043,0.0025,0.001,0.0045,0.0046,0.0048,0.0073,0.0076,0.0027,0.0027,0.0027,0,-0.0259,-0.0269,-0.0245,-0.025,-0.0244,-0.0207,-0.0215,-0.0192,-0.0158,-0.0144,-0.0134,-0.0069,-0.0039,-0.0003,-0.0002,0.0015,0.0034,0.0012,0.0042,0.0044,0.0046,0.0071,0.0076,0.0025,0.0025,0.0026,0.0026,0,-0.0289,-0.0296,-0.03,-0.0295,-0.0283,-0.0283,-0.0249,-0.0234,-0.021,-0.0182,-0.0144,-0.0097,-0.0057,-0.0042,-0.002,0.0009,0.0017,0.0032,0.0043,0.0045,0.0072,0.0077,0.0023,0.0023,0.0024,0.0024,0,0,-0.0315,-0.0323,-0.0324,-0.0333,-0.0308,-0.0303,-0.0287,-0.026,-0.0248,-0.0205,-0.0181,-0.0129,-0.0097,-0.0073,-0.0036,-0.0003,0.0027,0.0015,0.0018,0.0032,0.0095,0.0082,0.0087,0.0044,0.0045,0.0046,0.0107,0,-0.0346,-0.0379,-0.0365,-0.0384,-0.0395,-0.0357,-0.0345,-0.0312,-0.0273,-0.0239,-0.0176,-0.014,-0.011,-0.0089,-0.0051,0.0009,0.004,0.0008,0.0098,0.0101,0.0083,0.0093,0.0048,0.0112,0.0113,0.0114,0.0114,0,-0.038,-0.0397,-0.0432,-0.0435,-0.0435,-0.0439,-0.0411,-0.0393,-0.0328,-0.0296,-0.0241,-0.0185,-0.0122,-0.0099,0.0,-0.0023,0.0028,0.0074,0.0078,0.0081,0.0098,0.0113,0.0125,0.0124,0.0123,0.0122,0.0122,0,-0.0418,-0.044,-0.0475,-0.0475,-0.0471,-0.0477,-0.0468,-0.0417,-0.0399,-0.0329,-0.0301,-0.0216,-0.0168,-0.0093,0.0007,0.0003,0.0114,0.0124,0.0161,0.016,0.0169,0.0167,0.0187,0.0187,0.0187,0.0187,0.0187,0,-0.0452,-0.0477,-0.0502,-0.0519,-0.0552,-0.0527,-0.0537,-0.0507,-0.0458,-0.0426,-0.0338,-0.0283,-0.0164,-0.0077,-0.0,0.0097,0.0112,0.0157,0.0177,0.0152,0.0148,0.0173,0.017,0.0189,0.0189,0.0188,0.0188,0,-0.0484,-0.0502,-0.0543,-0.0565,-0.0575,-0.0597,-0.0595,-0.0589,-0.0537,-0.0489,-0.0465,-0.0333,-0.0211,-0.0097,0.0039,0.0087,0.0181,0.021,0.0171,0.0187,0.0203,0.0198,0.0252,0.0252,0.0252,0.0252,0.0252,0,-0.0502,-0.0531,-0.0585,-0.0614,-0.063,-0.0658,-0.067,-0.0637,-0.062,-0.0507,-0.0481,-0.0348,-0.025,-0.0061,0.0046,0.0185,0.0202,0.0235,0.0221,0.0197,0.0211,0.0206,0.0201,0.0253,0.0253,0.0253,0.0253,0,-0.0527,-0.0555,-0.0589,-0.0656,-0.0693,-0.0723,-0.0734,-0.0729,-0.0662,-0.0617,-0.0467,-0.0337,-0.0198,-0.0048,0.0056,0.0156,0.0204,0.0236,0.0236,0.0223,0.0198,0.021,0.0206,0.0253,0.0253,0.0253,0.0253,0,-0.0541,-0.0575,-0.0627,-0.0681,-0.0734,-0.0764,-0.0771,-0.0726,-0.0696,-0.0564,-0.0511,-0.033,-0.0218,-0.0062,0.0039,0.0129,0.0148,0.0161,0.0166,0.0167,0.0119,0.0073,0.0107,0,0,0,0,0,-0.0544,-0.0584,-0.0642,-0.0703,-0.0757,-0.0783,-0.0795,-0.0785,-0.0725,-0.0622,-0.056,-0.0414,-0.021,-0.0112,-0.0023,0.0004,0.0128,0.0106,0.0136,0.0254,0.0254,0.0211,0,0,0,0,0,0,-0.0547,-0.0604,-0.0639,-0.0706,-0.0748,-0.0798,-0.0809,-0.0772,-0.0706,-0.062,-0.0506,-0.041,-0.0219,-0.0254,-0.0021,0.0008,0.0033,0.021,0.0211,0.0254,0.0254,0.0254,0.0209,0,0,0,0,0]}]]